[[[{"header":{"parameterUnit":"kt","parameterCategory":2,"dx":1,"dy":1,"la1":30.253999710083008,"la2":30.299108505249023,"lo1":-89.0895004272461,"lo2":-89.04439544677734,"nx":28,"ny":28,"refTime":"2022-10-29T21:00:00:Z","depth":"0","parameterNumber":2,"parameterNumberName":"U-component_of_CURRENTS"},"data":[0.4838,0.5001,0.4897,0.5143,0.5125,0.5165,0.5167,0.5196,0.5377,0.5785,0.6134,0.6416,0.6865,0.7336,0.7328,0.7242,0.6546,0.6512,0.6224,0.6604,0.6581,0.6559,0.6262,0.6756,0.6754,0.5245,0.5233,0.5224,0.4428,0.4447,0.4534,0.4569,0.4638,0.45,0.4581,0.4642,0.4991,0.531,0.5738,0.6486,0.7052,0.7398,0.7794,0.7664,0.7176,0.7463,0.6675,0.6488,0.7273,0.7021,0.7685,0.7685,0.7685,0.7685,0.7685,0.7686,0.3867,0.3918,0.4024,0.4038,0.4085,0.4124,0.4164,0.4347,0.4633,0.5039,0.531,0.5884,0.6506,0.7404,0.7562,0.7734,0.7384,0.7534,0.7322,0.6926,0.6514,0.7357,0.8141,0.8141,0.8141,0.8141,0.8141,0,0.354,0.3483,0.3517,0.36,0.365,0.3642,0.3764,0.3902,0.4051,0.4313,0.4856,0.5249,0.6059,0.6603,0.7263,0.7472,0.6814,0.7366,0.7076,0.6338,0.5934,0.5778,0.6331,0.7002,0.6996,0.6991,0.6987,0.6985,0.3261,0.3287,0.3239,0.3301,0.332,0.3356,0.3428,0.3467,0.364,0.4023,0.4227,0.48,0.5245,0.6153,0.6408,0.6946,0.6446,0.7195,0.6651,0.6448,0.6286,0.5837,0.5622,0.6913,0.6922,0.693,0.6936,0,0.3171,0.3166,0.3195,0.3201,0.3192,0.3213,0.3321,0.3417,0.3532,0.3784,0.3877,0.4196,0.4742,0.5013,0.5482,0.5574,0.587,0.6175,0.6174,0.6282,0.6313,0.6082,0.6275,0.6092,0.6846,0.6857,0.6866,0,0.3125,0.3141,0.3149,0.3168,0.3179,0.3191,0.3248,0.3262,0.3405,0.3566,0.3599,0.3828,0.3972,0.4384,0.4527,0.5122,0.508,0.5202,0.5335,0.5219,0.5236,0.5098,0.4862,0.4928,0.492,0.4913,0.4907,0,0.3096,0.3132,0.3154,0.3167,0.3196,0.3191,0.3201,0.3232,0.3302,0.3397,0.3538,0.3611,0.3815,0.3981,0.4301,0.4092,0.4842,0.459,0.5062,0.5094,0.5183,0.5209,0.5368,0.4898,0.4896,0.4893,0.489,0,0.3102,0.3124,0.3163,0.3177,0.3185,0.3198,0.3209,0.3225,0.3276,0.3307,0.333,0.3367,0.3493,0.3381,0.3778,0.3589,0.3821,0.396,0.3997,0.4228,0.4252,0.497,0.5335,0.5075,0.4496,0.4489,0.4483,0,0.306,0.3112,0.314,0.3164,0.3185,0.3187,0.3193,0.3193,0.3206,0.3255,0.3211,0.3251,0.3138,0.3175,0.3222,0.3409,0.3598,0.3251,0.3884,0.3908,0.4136,0.442,0.4382,0.5199,0.439,0.44,0.4407,0,0.3035,0.3103,0.3106,0.3116,0.3156,0.3165,0.3168,0.3173,0.3185,0.3172,0.321,0.3112,0.3125,0.3097,0.3061,0.3139,0.3474,0.3191,0.3198,0.3604,0.4026,0.4272,0.4362,0.3408,0.3413,0.3417,0.4333,0,0.3031,0.3063,0.3082,0.3123,0.3136,0.3164,0.3169,0.3169,0.3158,0.3158,0.3139,0.3098,0.308,0.3046,0.3011,0.3078,0.3237,0.3126,0.3131,0.3187,0.3594,0.3652,0.2959,0.2958,0.2957,0.2957,0,0,0.298,0.3035,0.3059,0.309,0.3103,0.3113,0.3135,0.3133,0.3137,0.3126,0.312,0.3072,0.3029,0.2992,0.2984,0.2968,0.3168,0.2967,0.3127,0.3145,0.3163,0.3552,0.3607,0.2956,0.2955,0.2955,0.2955,0,0.2987,0.3017,0.3048,0.3071,0.3101,0.3106,0.3116,0.3132,0.312,0.3119,0.308,0.3055,0.3025,0.2985,0.296,0.2964,0.3105,0.2958,0.2975,0.3117,0.3136,0.3154,0.3539,0.359,0.2954,0.2954,0.2954,0,0.2967,0.2995,0.3015,0.3062,0.3072,0.3093,0.3081,0.3103,0.3104,0.3067,0.3054,0.303,0.2985,0.2966,0.2954,0.2944,0.3094,0.2926,0.2929,0.2931,0.3079,0.3099,0.3117,0.2895,0.2895,0.2895,0,0,0.2963,0.2997,0.3031,0.3063,0.3076,0.308,0.3088,0.3088,0.3081,0.3073,0.3049,0.3015,0.2985,0.2969,0.2946,0.2931,0.3067,0.2921,0.2924,0.2926,0.293,0.3076,0.3095,0.2895,0.2895,0.2895,0,0,0.2954,0.3,0.3006,0.3048,0.307,0.3078,0.3085,0.308,0.3064,0.3053,0.3016,0.3007,0.2989,0.2966,0.297,0.2934,0.292,0.2918,0.2952,0.2955,0.2958,0.2969,0.2936,0,0,0,0,0,0.297,0.3,0.3006,0.3016,0.3053,0.3082,0.3083,0.3074,0.3056,0.3065,0.3033,0.3009,0.2956,0.296,0.2953,0.2948,0.2896,0.2896,0.2895,0.2935,0.2939,0.2942,0,0,0,0,0,0,0.2974,0.2988,0.3004,0.3019,0.3028,0.308,0.3051,0.3049,0.3055,0.3051,0.3016,0.3008,0.2981,0.2961,0.2956,0.2951,0.2938,0.2896,0.2895,0.2895,0.2937,0.2939,0.2942,0,0,0,0,0,0.2978,0.2988,0.3058,0.3017,0.3024,0.3023,0.305,0.3048,0.3045,0.3017,0.301,0.304,0.2982,0.2975,0.2958,0.2954,0.2941,0.2939,0.2896,0.2895,0.2895,0.2938,0,0,0,0,0,0,0.298,0.297,0.3058,0.3059,0.301,0.3019,0.3023,0.3047,0.3009,0.3005,0.3039,0.3037,0.2983,0.2977,0.2972,0.2957,0.2944,0.2942,0.2941,0.2895,0.2895,0.2895,0,0,0,0,0,0,0.2965,0.2971,0.3058,0.305,0.3049,0.3015,0.3019,0.3003,0.3007,0.3031,0.303,0.3039,0.2983,0.2979,0.2975,0.295,0.2946,0.2945,0.2943,0.2942,0.2895,0.2895,0,0,0,0,0,0,0.2967,0.2972,0.3049,0.3049,0.3048,0.3051,0.2998,0.3028,0.303,0.3031,0.3028,0.3027,0.2984,0.298,0.2977,0.2954,0.2951,0.2946,0.2945,0.2944,0.2944,0,0,0,0,0,0,0,0.2968,0.2942,0.306,0.3048,0.3047,0.3067,0.3067,0.3066,0.303,0.3029,0.3028,0.3027,0.2957,0.2955,0.2953,0.2958,0,0,0.2947,0.2946,0,0,0,0,0,0,0,0,0.2939,0.2941,0.3061,0.3061,0.3062,0.3067,0.3067,0.3066,0.303,0.3029,0.3028,0.3028,0.2956,0.2955,0.2953,0,0,0,0,0,0,0,0,0,0,0,0,0,0,0,0.3061,0.3061,0,0.3067,0.3067,0.3066,0.303,0.3029,0.3028,0.3028,0.2956,0.2954,0.2953,0,0,0,0,0,0,0,0,0,0,0,0,0,0,0,0,0,0,0,0,0,0,0,0,0,0,0,0,0,0,0,0,0,0,0,0,0,0,0,0,0,0,0,0,0,0,0,0,0,0,0,0,0,0,0,0,0,0,0,0,0,0,0,0,0,0,0,0,0]}],[{"header":{"parameterUnit":"kt","parameterCategory":2,"dx":1,"dy":1,"la1":30.253999710083008,"la2":30.299108505249023,"lo1":-89.0895004272461,"lo2":-89.04439544677734,"nx":28,"ny":28,"refTime":"2022-10-29T21:00:00:Z","depth":"0","parameterNumber":3,"parameterNumberName":"V-component_of_CURRENTS"},"data":[-0.012,0.0152,0.0174,0.0723,0.0923,0.1289,0.1504,0.1895,0.2326,0.3133,0.3615,0.3944,0.3549,0.1255,-0.048,-0.0913,-0.1669,-0.1629,-0.2041,-0.17,-0.1675,-0.165,-0.1818,-0.1918,-0.1921,-0.2845,-0.2855,-0.2862,-0.0416,-0.0326,-0.01,0.0171,0.0493,0.0481,0.0974,0.1236,0.1814,0.2421,0.2885,0.3204,0.2652,0.1927,0.08,-0.0029,-0.0437,-0.0523,-0.0932,-0.1077,-0.0215,-0.0312,-0.0093,-0.0093,-0.0093,-0.0092,-0.0092,-0.0091,-0.0884,-0.0768,-0.0672,-0.0458,-0.0208,0.0174,0.0426,0.0842,0.1359,0.1946,0.2145,0.264,0.2331,0.193,0.1451,0.0526,0.0442,0.0071,-0.0186,-0.0314,-0.0573,0.0399,0.0814,0.0812,0.0812,0.0811,0.081,0,-0.1221,-0.1242,-0.1172,-0.0972,-0.0763,-0.0497,-0.0164,0.0131,0.0423,0.0821,0.1434,0.1722,0.1807,0.1709,0.1362,0.1086,0.0044,0.0449,-0.0098,-0.0638,-0.0827,-0.0999,-0.017,0.0197,0.0192,0.0189,0.0186,0.0185,-0.1479,-0.149,-0.1485,-0.1349,-0.1318,-0.1124,-0.0882,-0.0731,-0.0381,0.0121,0.0446,0.0757,0.1085,0.1151,0.0769,0.0547,0.0006,0.0349,-0.004,-0.0547,-0.0807,-0.0994,-0.117,0.0134,0.0141,0.0146,0.015,0,-0.1556,-0.1671,-0.1642,-0.1652,-0.1614,-0.1489,-0.1178,-0.091,-0.0741,-0.0266,-0.0154,0.0067,0.0274,0.0109,0.0094,-0.0182,-0.0377,-0.0213,-0.0151,-0.0103,-0.0603,-0.0867,-0.083,-0.1009,-0.0091,-0.0085,-0.008,0,-0.1683,-0.1674,-0.1756,-0.1763,-0.1642,-0.1677,-0.1428,-0.1353,-0.1077,-0.0733,-0.0812,-0.0473,-0.0675,-0.0519,-0.0738,-0.0631,-0.0611,-0.0834,-0.0783,-0.0771,-0.0758,-0.1113,-0.1379,-0.0967,-0.0969,-0.0972,-0.0974,0,-0.1675,-0.1758,-0.1795,-0.1819,-0.1819,-0.177,-0.1714,-0.1578,-0.1386,-0.1216,-0.0984,-0.1005,-0.0814,-0.0933,-0.0952,-0.1121,-0.0791,-0.1003,-0.0912,-0.0899,-0.0756,-0.0737,-0.1018,-0.0978,-0.0978,-0.0979,-0.098,0,-0.1728,-0.1772,-0.1839,-0.1821,-0.1818,-0.1819,-0.1689,-0.1663,-0.1514,-0.144,-0.1374,-0.1327,-0.1271,-0.143,-0.1345,-0.1421,-0.1456,-0.1444,-0.143,-0.1241,-0.1258,-0.0915,-0.0756,-0.1255,-0.1278,-0.1282,-0.1285,0,-0.1696,-0.1776,-0.1819,-0.1859,-0.189,-0.1896,-0.1872,-0.1848,-0.1797,-0.1668,-0.169,-0.1578,-0.178,-0.1691,-0.1728,-0.1636,-0.1622,-0.1775,-0.1473,-0.1462,-0.1313,-0.1202,-0.1139,-0.0826,-0.133,-0.1325,-0.1321,0,-0.1666,-0.1769,-0.1775,-0.1789,-0.1865,-0.1861,-0.1892,-0.1879,-0.1778,-0.1863,-0.1729,-0.1852,-0.1804,-0.1798,-0.1816,-0.1788,-0.1691,-0.1797,-0.1791,-0.1642,-0.1433,-0.1282,-0.1236,-0.1698,-0.1694,-0.1691,-0.1357,0,-0.1746,-0.1756,-0.1768,-0.1811,-0.183,-0.1866,-0.1888,-0.1892,-0.1897,-0.1886,-0.1856,-0.189,-0.1844,-0.1895,-0.193,-0.1869,-0.1818,-0.1842,-0.1793,-0.179,-0.1646,-0.1619,-0.193,-0.1929,-0.1928,-0.1928,0,0,-0.1708,-0.172,-0.1713,-0.1753,-0.1772,-0.1786,-0.1821,-0.1836,-0.1871,-0.1839,-0.1873,-0.1857,-0.1895,-0.1856,-0.1897,-0.1921,-0.1833,-0.1886,-0.182,-0.1808,-0.1797,-0.166,-0.1634,-0.1926,-0.1926,-0.1926,-0.1926,0,-0.1737,-0.1695,-0.1701,-0.1733,-0.1765,-0.1777,-0.1788,-0.1817,-0.1815,-0.1859,-0.1842,-0.1849,-0.1887,-0.187,-0.1868,-0.1913,-0.182,-0.1928,-0.1908,-0.1817,-0.1807,-0.1798,-0.1661,-0.1639,-0.1924,-0.1924,-0.1924,0,-0.1744,-0.1735,-0.1719,-0.1718,-0.173,-0.1766,-0.1745,-0.1766,-0.1787,-0.1772,-0.18,-0.1807,-0.1804,-0.1832,-0.1842,-0.1824,-0.1781,-0.1856,-0.1861,-0.1818,-0.172,-0.171,-0.1701,-0.1804,-0.1804,-0.1803,0,0,-0.1764,-0.1742,-0.1749,-0.1719,-0.1731,-0.1743,-0.1753,-0.1756,-0.1768,-0.1771,-0.1776,-0.1778,-0.1789,-0.1793,-0.1807,-0.1836,-0.1749,-0.1843,-0.1849,-0.1853,-0.1815,-0.1718,-0.171,-0.1802,-0.1802,-0.1802,0,0,-0.1773,-0.1756,-0.1745,-0.1702,-0.1729,-0.1739,-0.1744,-0.1747,-0.1759,-0.1751,-0.1741,-0.1742,-0.1772,-0.1765,-0.1752,-0.1787,-0.1762,-0.1765,-0.1792,-0.1799,-0.1805,-0.1753,-0.1716,0,0,0,0,0,-0.1792,-0.1762,-0.1752,-0.1744,-0.1714,-0.1745,-0.1748,-0.1738,-0.1719,-0.1735,-0.1735,-0.1714,-0.1752,-0.174,-0.1744,-0.1758,-0.1788,-0.179,-0.1793,-0.1835,-0.1842,-0.1848,0,0,0,0,0,0,-0.1789,-0.1777,-0.1754,-0.1754,-0.1749,-0.1744,-0.171,-0.1709,-0.1717,-0.1714,-0.1715,-0.1714,-0.1705,-0.1737,-0.1741,-0.1754,-0.1715,-0.1789,-0.1791,-0.1793,-0.1837,-0.1843,-0.1848,0,0,0,0,0,-0.1787,-0.1778,-0.1716,-0.1757,-0.1752,-0.1743,-0.1709,-0.1707,-0.1713,-0.1709,-0.1707,-0.1705,-0.1706,-0.1708,-0.1739,-0.1752,-0.1712,-0.1713,-0.179,-0.1792,-0.1793,-0.184,0,0,0,0,0,0,-0.1786,-0.1789,-0.1717,-0.1718,-0.1743,-0.1745,-0.1738,-0.1706,-0.1708,-0.1706,-0.1698,-0.1695,-0.1707,-0.1708,-0.1711,-0.1752,-0.1709,-0.1711,-0.1712,-0.1791,-0.1793,-0.1794,0,0,0,0,0,0,-0.1794,-0.1788,-0.1718,-0.17,-0.1699,-0.1746,-0.174,-0.176,-0.1708,-0.1696,-0.1694,-0.1696,-0.1702,-0.1709,-0.171,-0.1745,-0.1708,-0.1709,-0.171,-0.1711,-0.1792,-0.1794,0,0,0,0,0,0,-0.1793,-0.1788,-0.17,-0.1699,-0.1698,-0.1708,-0.1766,-0.1733,-0.1696,-0.1696,-0.1692,-0.1691,-0.1703,-0.1704,-0.1711,-0.1745,-0.1745,-0.1708,-0.1709,-0.1709,-0.171,0,0,0,0,0,0,0,-0.1792,-0.1809,-0.1711,-0.1698,-0.1697,-0.1727,-0.1728,-0.1728,-0.1696,-0.1694,-0.1693,-0.1691,-0.1699,-0.17,-0.1702,-0.1744,0,0,-0.1707,-0.1708,0,0,0,0,0,0,0,0,-0.1813,-0.181,-0.1711,-0.1712,-0.1712,-0.1727,-0.1728,-0.1728,-0.1696,-0.1694,-0.1693,-0.1692,-0.1699,-0.1701,-0.1702,0,0,0,0,0,0,0,0,0,0,0,0,0,0,0,-0.1711,-0.1712,0,-0.1727,-0.1728,-0.1728,-0.1695,-0.1694,-0.1693,-0.1692,-0.17,-0.1701,-0.1702,0,0,0,0,0,0,0,0,0,0,0,0,0,0,0,0,0,0,0,0,0,0,0,0,0,0,0,0,0,0,0,0,0,0,0,0,0,0,0,0,0,0,0,0,0,0,0,0,0,0,0,0,0,0,0,0,0,0,0,0,0,0,0,0,0,0,0,0,0]}]],[[{"header":{"parameterUnit":"kt","parameterCategory":2,"dx":1,"dy":1,"la1":30.253999710083008,"la2":30.299108505249023,"lo1":-89.0895004272461,"lo2":-89.04439544677734,"nx":28,"ny":28,"refTime":"2022-10-29T21:00:00:Z","depth":"2","parameterNumber":2,"parameterNumberName":"U-component_of_CURRENTS"},"data":[0.2204,0.2284,0.2325,0.2476,0.2593,0.265,0.2696,0.2761,0.2895,0.2907,0.2946,0.3189,0.3489,0.3048,0.3046,0.291,0.3003,0.2793,0.3738,0.3524,0.3559,0.3675,0.3224,0,0,0,0,0,0.2183,0.2269,0.2425,0.2524,0.2654,0.2744,0.2956,0.2973,0.3166,0.3446,0.3615,0.3408,0.3489,0.3673,0.3531,0.3507,0.3366,0.3373,0.3151,0.32,0.3241,0.2909,0.2778,0.2774,0.277,0.2767,0,0,0.2179,0.2223,0.2319,0.2432,0.2603,0.2746,0.2812,0.3085,0.333,0.3589,0.3902,0.4063,0.4188,0.4214,0.4213,0.4169,0.4377,0.4084,0.409,0.4104,0.383,0.3726,0.3933,0.3937,0.3941,0.3944,0.3947,0,0.2136,0.2161,0.2206,0.2341,0.2472,0.2609,0.2816,0.2975,0.326,0.3527,0.3918,0.4149,0.4542,0.4517,0.4682,0.466,0.4468,0.4457,0.493,0.3746,0.3645,0.3666,0.3651,0.3876,0.388,0.3883,0.3885,0.3887,0.2154,0.2139,0.2197,0.2271,0.2308,0.2429,0.2577,0.2751,0.2953,0.3416,0.3622,0.4079,0.4326,0.4749,0.4708,0.4872,0.4846,0.4557,0.4119,0.4371,0.4402,0.4361,0.4322,0.3933,0.3927,0.3922,0.3918,0,0.2177,0.2177,0.2186,0.2233,0.2269,0.2322,0.2556,0.2709,0.2893,0.3226,0.336,0.3678,0.4049,0.4202,0.4509,0.4378,0.4567,0.4601,0.4231,0.4241,0.4338,0.4299,0.4727,0.4729,0.473,0.4731,0.4731,0,0.2219,0.2216,0.2251,0.2238,0.2297,0.2339,0.2473,0.2551,0.2784,0.3003,0.3117,0.3375,0.3504,0.3792,0.3844,0.4071,0.4205,0.3979,0.4054,0.3708,0.3672,0.3862,0.3829,0.4096,0.4091,0.4087,0.4083,0,0.2246,0.2281,0.2267,0.2274,0.2328,0.2359,0.2416,0.2526,0.2644,0.2857,0.3043,0.3161,0.3365,0.3482,0.3653,0.352,0.4019,0.3877,0.3918,0.3921,0.3706,0.3675,0.4078,0.4077,0.4076,0.4074,0.4072,0,0.23,0.2303,0.2298,0.234,0.2353,0.2381,0.2463,0.2509,0.2659,0.2734,0.283,0.2924,0.3066,0.297,0.3252,0.3125,0.3253,0.3346,0.3371,0.3292,0.3291,0.3444,0.3568,0.3688,0.3682,0.3677,0.3672,0,0.229,0.2309,0.234,0.2354,0.2355,0.24,0.2434,0.2478,0.2536,0.2652,0.2674,0.2778,0.2653,0.2741,0.2781,0.294,0.3062,0.2815,0.3294,0.331,0.3238,0.3383,0.3025,0.3494,0.3604,0.3611,0.3616,0,0.229,0.2335,0.2339,0.2346,0.2387,0.2406,0.2433,0.2469,0.2528,0.2544,0.2643,0.2585,0.2635,0.264,0.2643,0.2722,0.2961,0.2762,0.2769,0.3024,0.34,0.3306,0.3346,0.2972,0.2977,0.2981,0.3562,0,0.2277,0.2307,0.2325,0.2369,0.2389,0.241,0.2439,0.2468,0.2489,0.2514,0.2553,0.2554,0.2598,0.2576,0.2555,0.265,0.2745,0.2701,0.2725,0.2772,0.3023,0.3066,0.2555,0.2555,0.2555,0.2554,0,0,0.2249,0.2293,0.234,0.2366,0.2378,0.2422,0.2433,0.2458,0.249,0.2505,0.2507,0.2543,0.2528,0.2558,0.2547,0.2542,0.2689,0.2563,0.2717,0.2734,0.2751,0.2992,0.3034,0.2554,0.2554,0.2554,0.2554,0,0.2246,0.2297,0.2329,0.2352,0.2399,0.2419,0.243,0.2469,0.2485,0.2499,0.2504,0.2516,0.2526,0.2531,0.2535,0.2538,0.266,0.2543,0.2564,0.2709,0.2727,0.2744,0.2984,0.3021,0.2553,0.2553,0.2553,0,0.223,0.2273,0.2298,0.2358,0.2386,0.2407,0.2428,0.2467,0.248,0.2489,0.2506,0.2511,0.2513,0.2524,0.2529,0.2532,0.2667,0.2544,0.2545,0.2547,0.2698,0.2717,0.2734,0.253,0.253,0.253,0,0,0.2226,0.2271,0.2316,0.236,0.2376,0.2412,0.2434,0.2459,0.2481,0.2493,0.2503,0.2511,0.2514,0.2524,0.2523,0.2533,0.2636,0.2542,0.2543,0.2544,0.2547,0.2697,0.2713,0.253,0.253,0.253,0,0,0.2221,0.2285,0.2304,0.2358,0.2388,0.2428,0.2452,0.247,0.249,0.2498,0.2506,0.2509,0.2517,0.2519,0.252,0.2535,0.2529,0.2528,0.2545,0.2546,0.2547,0.2552,0.2531,0,0,0,0,0,0.2241,0.2275,0.2291,0.2306,0.2382,0.2418,0.2426,0.2464,0.2477,0.2492,0.2501,0.251,0.2521,0.2522,0.2523,0.2538,0.2532,0.2532,0.2532,0.2553,0.2555,0.2556,0,0,0,0,0,0,0.2247,0.2265,0.229,0.2332,0.235,0.2417,0.2433,0.2443,0.2477,0.2482,0.2507,0.251,0.2515,0.2522,0.2523,0.2537,0.253,0.2532,0.2532,0.2532,0.2554,0.2555,0.2556,0,0,0,0,0,0.2252,0.2266,0.2385,0.2332,0.2347,0.2401,0.2433,0.2442,0.2471,0.2487,0.2492,0.2501,0.2514,0.2517,0.2523,0.2537,0.253,0.253,0.2532,0.2532,0.2532,0.2554,0,0,0,0,0,0,0.2256,0.2267,0.2388,0.2393,0.2336,0.2398,0.2411,0.2441,0.2474,0.2481,0.2479,0.2482,0.2514,0.2515,0.2517,0.2537,0.2529,0.2529,0.253,0.2532,0.2532,0.2531,0,0,0,0,0,0,0.2259,0.2271,0.2391,0.2394,0.24,0.2395,0.2407,0.2409,0.2472,0.2463,0.2468,0.248,0.2503,0.2515,0.2516,0.2517,0.2529,0.2529,0.2529,0.2529,0.2532,0.2531,0,0,0,0,0,0,0.2264,0.2274,0.2393,0.2397,0.2403,0.2462,0.2395,0.2466,0.2497,0.246,0.2499,0.25,0.2501,0.2503,0.2515,0.2516,0.2517,0.2529,0.2529,0.2529,0.2529,0,0,0,0,0,0,0,0.2269,0.2198,0.236,0.24,0.2405,0.2442,0.2443,0.2444,0.2497,0.2498,0.2499,0.2499,0.2527,0.2527,0.2527,0.2514,0,0,0.2529,0.2529,0,0,0,0,0,0,0,0,0.2194,0.2197,0.236,0.2361,0.2362,0.2442,0.2443,0.2444,0.2497,0.2498,0.2498,0.2499,0.2527,0.2527,0.2527,0,0,0,0,0,0,0,0,0,0,0,0,0,0,0,0.236,0.2361,0,0.2442,0.2443,0.2444,0.2497,0.2498,0.2498,0.2499,0.2527,0.2527,0.2527,0,0,0,0,0,0,0,0,0,0,0,0,0,0,0,0,0,0,0,0,0,0,0,0,0,0,0,0,0,0,0,0,0,0,0,0,0,0,0,0,0,0,0,0,0,0,0,0,0,0,0,0,0,0,0,0,0,0,0,0,0,0,0,0,0,0,0,0,0]}],[{"header":{"parameterUnit":"kt","parameterCategory":2,"dx":1,"dy":1,"la1":30.253999710083008,"la2":30.299108505249023,"lo1":-89.0895004272461,"lo2":-89.04439544677734,"nx":28,"ny":28,"refTime":"2022-10-29T21:00:00:Z","depth":"2","parameterNumber":3,"parameterNumberName":"V-component_of_CURRENTS"},"data":[0.0169,0.0332,0.0448,0.0893,0.1116,0.1576,0.1863,0.2171,0.2298,0.2295,0.2163,0.1833,0.1148,0.0597,-0.0062,-0.0468,-0.0573,-0.0525,-0.057,-0.0427,-0.0424,-0.0921,-0.0939,0,0,0,0,0,0.014,0.0244,0.0375,0.0612,0.0896,0.0963,0.1354,0.1602,0.2002,0.2027,0.2095,0.1576,0.1015,0.042,-0.0355,-0.0869,-0.0892,-0.0993,-0.0935,-0.0939,-0.0944,-0.0955,-0.09,-0.09,-0.0901,-0.0902,0,0,0.0122,0.0165,0.0256,0.0397,0.056,0.0865,0.1069,0.1297,0.1568,0.1798,0.1728,0.1664,0.1093,0.0249,-0.0234,-0.0754,-0.0803,-0.1027,-0.1027,-0.1028,-0.1044,-0.1013,-0.1012,-0.1013,-0.1014,-0.1015,-0.1016,0,0.0167,0.0155,0.0172,0.0322,0.0403,0.0547,0.0674,0.0844,0.0967,0.112,0.1345,0.1312,0.089,0.0426,-0.0218,-0.0504,-0.0884,-0.0929,-0.0969,-0.1001,-0.0962,-0.0967,-0.097,-0.0955,-0.0955,-0.0956,-0.0956,-0.0957,0.0185,0.0198,0.0202,0.0258,0.0229,0.0244,0.0326,0.0332,0.0477,0.0626,0.0769,0.0678,0.0635,0.0204,-0.0283,-0.071,-0.0811,-0.0927,-0.108,-0.1124,-0.1131,-0.1129,-0.1127,-0.0964,-0.0963,-0.0962,-0.0962,0,0.0172,0.0189,0.0195,0.0161,0.0157,0.0133,0.0193,0.0255,0.0227,0.0386,0.0395,0.0291,0.016,-0.0161,-0.0425,-0.07,-0.0921,-0.0999,-0.0874,-0.0875,-0.1123,-0.1123,-0.1142,-0.1143,-0.1143,-0.1144,-0.1145,0,0.0148,0.0146,0.0132,0.0132,0.013,0.0077,0.0077,0.0002,0.001,0.0113,-0.0106,-0.0032,-0.0377,-0.0465,-0.0708,-0.09,-0.0863,-0.1127,-0.1136,-0.1064,-0.1059,-0.1132,-0.1132,-0.113,-0.1131,-0.1131,-0.1131,0,0.0068,0.0095,0.0118,0.0112,0.0076,0.0029,-0.001,-0.0115,-0.0096,-0.0217,-0.0171,-0.0405,-0.0414,-0.0623,-0.08,-0.086,-0.0933,-0.1014,-0.1133,-0.1132,-0.1083,-0.1078,-0.1132,-0.1132,-0.1132,-0.1132,-0.1132,0,0.0012,0.0032,0.0072,0.0051,0.0043,0.0015,-0.008,-0.0113,-0.0237,-0.0302,-0.0439,-0.0539,-0.0662,-0.0766,-0.0935,-0.0931,-0.1028,-0.1092,-0.1092,-0.1137,-0.1146,-0.1029,-0.1014,-0.1068,-0.1068,-0.1068,-0.1067,0,-0.007,-0.0009,-0.0029,-0.0022,-0.0006,-0.0109,-0.0141,-0.0239,-0.0336,-0.0408,-0.0578,-0.0651,-0.0811,-0.0854,-0.0952,-0.102,-0.1075,-0.1076,-0.1114,-0.1114,-0.1131,-0.1138,-0.106,-0.1015,-0.1066,-0.1066,-0.1067,0,-0.0129,-0.011,-0.0118,-0.0117,-0.0169,-0.0194,-0.0244,-0.0324,-0.037,-0.0514,-0.0569,-0.075,-0.0842,-0.09,-0.0994,-0.1048,-0.1069,-0.109,-0.1092,-0.1055,-0.1102,-0.113,-0.1133,-0.1113,-0.1114,-0.1114,-0.1066,0,-0.014,-0.0155,-0.0153,-0.0172,-0.0204,-0.0221,-0.0297,-0.0363,-0.0464,-0.0541,-0.067,-0.0786,-0.09,-0.0948,-0.1009,-0.1075,-0.107,-0.11,-0.111,-0.1114,-0.1089,-0.109,-0.1093,-0.1093,-0.1094,-0.1094,0,0,-0.0208,-0.02,-0.0265,-0.025,-0.0276,-0.0378,-0.0369,-0.0433,-0.0542,-0.06,-0.065,-0.084,-0.0916,-0.1008,-0.1038,-0.1061,-0.1069,-0.1082,-0.1112,-0.1114,-0.1115,-0.1092,-0.1092,-0.1095,-0.1095,-0.1096,-0.1096,0,-0.0198,-0.0267,-0.026,-0.0286,-0.0345,-0.0392,-0.0404,-0.049,-0.0558,-0.0627,-0.0725,-0.0821,-0.0921,-0.0997,-0.1044,-0.1063,-0.1094,-0.1093,-0.1084,-0.1115,-0.1116,-0.1117,-0.1094,-0.1094,-0.1097,-0.1097,-0.1097,0,-0.0225,-0.0262,-0.0287,-0.034,-0.0394,-0.0402,-0.0486,-0.0538,-0.0569,-0.0677,-0.0762,-0.0846,-0.0932,-0.1001,-0.1039,-0.1045,-0.1105,-0.1105,-0.1103,-0.1104,-0.1136,-0.1137,-0.1138,-0.1124,-0.1124,-0.1123,0,0,-0.0222,-0.025,-0.0312,-0.0347,-0.0366,-0.0453,-0.0489,-0.0551,-0.0629,-0.0675,-0.0761,-0.0852,-0.0922,-0.0969,-0.103,-0.1075,-0.1084,-0.1106,-0.1104,-0.1103,-0.1103,-0.1135,-0.1136,-0.1123,-0.1123,-0.1123,0,0,-0.023,-0.0298,-0.0341,-0.0378,-0.0425,-0.0507,-0.0539,-0.0597,-0.0685,-0.0721,-0.0813,-0.0839,-0.0917,-0.0956,-0.094,-0.1047,-0.1055,-0.1059,-0.1022,-0.1021,-0.102,-0.1007,-0.1001,0,0,0,0,0,-0.0268,-0.0277,-0.0315,-0.0332,-0.0439,-0.0477,-0.0494,-0.0594,-0.0656,-0.0671,-0.0769,-0.0815,-0.0975,-0.0963,-0.0978,-0.1006,-0.1116,-0.1117,-0.1118,-0.1082,-0.108,-0.1079,0,0,0,0,0,0,-0.0275,-0.0293,-0.0315,-0.0391,-0.0417,-0.0478,-0.0563,-0.059,-0.0657,-0.0674,-0.0795,-0.0816,-0.0877,-0.0959,-0.0972,-0.0998,-0.0997,-0.1116,-0.1118,-0.1118,-0.1081,-0.108,-0.1079,0,0,0,0,0,-0.0281,-0.0295,-0.0444,-0.0393,-0.0415,-0.0539,-0.0565,-0.0589,-0.0656,-0.0748,-0.0774,-0.0734,-0.0873,-0.0892,-0.0967,-0.0991,-0.0988,-0.0993,-0.1117,-0.1118,-0.1119,-0.1081,0,0,0,0,0,0,-0.0285,-0.032,-0.0451,-0.0461,-0.0417,-0.054,-0.0563,-0.0587,-0.0729,-0.0753,-0.0687,-0.0698,-0.0869,-0.0885,-0.0899,-0.0986,-0.0981,-0.0986,-0.0989,-0.1118,-0.1118,-0.1119,0,0,0,0,0,0,-0.0313,-0.0328,-0.0457,-0.0482,-0.0496,-0.054,-0.056,-0.0597,-0.0729,-0.0662,-0.0674,-0.069,-0.0852,-0.088,-0.0891,-0.0944,-0.0976,-0.098,-0.0984,-0.0986,-0.1118,-0.1119,0,0,0,0,0,0,-0.0321,-0.0334,-0.048,-0.0491,-0.0504,-0.063,-0.0575,-0.0685,-0.0739,-0.0654,-0.0747,-0.0751,-0.0845,-0.0859,-0.0885,-0.0932,-0.0941,-0.0976,-0.0979,-0.0981,-0.0983,0,0,0,0,0,0,0,-0.0328,-0.0216,-0.0387,-0.0498,-0.051,-0.0558,-0.0561,-0.0564,-0.074,-0.0743,-0.0746,-0.075,-0.0951,-0.0956,-0.096,-0.0922,0,0,-0.0976,-0.0978,0,0,0,0,0,0,0,0,-0.0212,-0.0215,-0.0387,-0.0389,-0.0391,-0.0558,-0.0561,-0.0563,-0.074,-0.0743,-0.0746,-0.0748,-0.0952,-0.0956,-0.096,0,0,0,0,0,0,0,0,0,0,0,0,0,0,0,-0.0387,-0.0389,0,-0.0559,-0.0561,-0.0563,-0.074,-0.0743,-0.0745,-0.0747,-0.0953,-0.0956,-0.096,0,0,0,0,0,0,0,0,0,0,0,0,0,0,0,0,0,0,0,0,0,0,0,0,0,0,0,0,0,0,0,0,0,0,0,0,0,0,0,0,0,0,0,0,0,0,0,0,0,0,0,0,0,0,0,0,0,0,0,0,0,0,0,0,0,0,0,0,0]}]],[[{"header":{"parameterUnit":"kt","parameterCategory":2,"dx":1,"dy":1,"la1":30.253999710083008,"la2":30.299108505249023,"lo1":-89.0895004272461,"lo2":-89.04439544677734,"nx":28,"ny":28,"refTime":"2022-10-29T21:00:00:Z","depth":"4","parameterNumber":2,"parameterNumberName":"U-component_of_CURRENTS"},"data":[0.0421,0.0516,0.0616,0.0758,0.0865,0.1041,0.1172,0.1352,0.1425,0.1689,0.1783,0.1981,0.2145,0.227,0.2331,0.2362,0.2266,0.2647,0.2641,0.2564,0.2573,0.258,0.2514,0,0,0,0,0,0.0475,0.0539,0.0662,0.083,0.0994,0.1099,0.1316,0.1443,0.1704,0.1818,0.1964,0.2126,0.228,0.2392,0.2378,0.2532,0.2565,0.25,0.242,0.2569,0.2579,0.2512,0,0,0,0,0,0,0.0567,0.0604,0.0743,0.089,0.1051,0.1187,0.1303,0.1498,0.167,0.2016,0.2093,0.2331,0.2548,0.2588,0.2642,0.2661,0.2588,0.2465,0.2479,0.2489,0.2419,0.23,0.2308,0,0,0,0,0,0.0654,0.0725,0.0808,0.0977,0.1109,0.1256,0.144,0.154,0.1823,0.2012,0.2227,0.2355,0.2536,0.2639,0.2716,0.2711,0.2749,0.2734,0.2736,0.2621,0.2546,0.2516,0.2507,0.2614,0.2615,0.2616,0.2617,0,0.0751,0.0789,0.0972,0.1049,0.113,0.1285,0.1405,0.1639,0.1776,0.2106,0.2198,0.2458,0.2595,0.2685,0.2796,0.2818,0.2793,0.276,0.2639,0.256,0.253,0.2518,0.2507,0.2624,0.2623,0.2623,0.2622,0,0.079,0.0895,0.0988,0.1155,0.1216,0.1292,0.1536,0.1656,0.1848,0.207,0.2163,0.241,0.2566,0.2679,0.2823,0.2743,0.2777,0.2764,0.2794,0.2771,0.2529,0.2514,0.2636,0.2634,0.2631,0.2629,0.2628,0,0.0873,0.0937,0.1087,0.1132,0.1239,0.1361,0.1512,0.1629,0.185,0.2013,0.2163,0.2315,0.2486,0.2614,0.2627,0.2665,0.2762,0.2608,0.259,0.2621,0.2606,0.2608,0.259,0.276,0.2759,0.2759,0.2759,0,0.0885,0.1025,0.1103,0.1152,0.1311,0.138,0.1477,0.1648,0.1773,0.1993,0.2105,0.2281,0.2415,0.2484,0.257,0.2529,0.2719,0.265,0.2567,0.2557,0.2599,0.2581,0.2758,0.2758,0.2758,0.2758,0.2758,0,0.0943,0.1011,0.1109,0.1249,0.1282,0.1358,0.1516,0.1618,0.1808,0.1905,0.2058,0.2155,0.2314,0.2293,0.2448,0.2412,0.2442,0.2472,0.2475,0.2367,0.2283,0.2292,0.244,0.2438,0.2436,0.2434,0.2432,0,0.0938,0.1032,0.1093,0.1202,0.1258,0.135,0.1446,0.1561,0.1668,0.1807,0.1916,0.2059,0.2056,0.214,0.2214,0.2287,0.2348,0.2276,0.2356,0.2357,0.224,0.2359,0.2345,0.2401,0.2405,0.2408,0.241,0,0.0919,0.104,0.1055,0.1112,0.1223,0.1266,0.1376,0.1489,0.1576,0.1692,0.1819,0.195,0.2003,0.2055,0.2101,0.2175,0.2292,0.2174,0.2176,0.2175,0.2439,0.2332,0.2339,0.2325,0.2329,0.2332,0.2389,0,0.0973,0.1027,0.1048,0.1131,0.1182,0.1238,0.1322,0.1397,0.1468,0.1538,0.169,0.1764,0.1878,0.1911,0.1933,0.2077,0.2057,0.2047,0.2004,0.2103,0.2109,0.2126,0.1903,0.1901,0.19,0.1899,0,0,0.0948,0.099,0.1021,0.107,0.1114,0.1172,0.1226,0.1291,0.1394,0.1451,0.1463,0.1652,0.1694,0.1828,0.1878,0.1884,0.1914,0.1894,0.2046,0.2063,0.2078,0.2089,0.2107,0.1897,0.1897,0.1896,0.1896,0,0.095,0.0979,0.1004,0.1051,0.1119,0.1157,0.118,0.1255,0.1313,0.1412,0.1458,0.1547,0.1648,0.1712,0.1753,0.1858,0.1861,0.1886,0.1957,0.2033,0.2051,0.2067,0.2081,0.2098,0.1893,0.1893,0.1893,0,0.0945,0.0974,0.0986,0.1041,0.1081,0.1134,0.1145,0.1203,0.1268,0.129,0.1405,0.1458,0.1519,0.162,0.1667,0.1643,0.1804,0.175,0.1757,0.1772,0.1848,0.1869,0.1887,0.165,0.1649,0.1648,0,0,0.095,0.0972,0.1018,0.1042,0.1065,0.112,0.1151,0.1192,0.1253,0.1289,0.1348,0.1417,0.1489,0.1533,0.1591,0.1667,0.1678,0.172,0.1732,0.1741,0.1761,0.1839,0.1859,0.1645,0.1645,0.1645,0,0,0.0951,0.0991,0.1014,0.1037,0.1086,0.1133,0.1164,0.1198,0.1274,0.1295,0.1337,0.1355,0.146,0.1472,0.1429,0.1589,0.1541,0.1551,0.1583,0.1597,0.1609,0.162,0.1422,0,0,0,0,0,0.097,0.0979,0.0999,0.1008,0.1069,0.1117,0.1129,0.1183,0.1205,0.1238,0.1304,0.1306,0.1471,0.1433,0.1445,0.1509,0.1606,0.1613,0.162,0.168,0.1695,0.1707,0,0,0,0,0,0,0.0974,0.0983,0.0999,0.1039,0.1054,0.1116,0.1134,0.115,0.1204,0.1214,0.1294,0.1307,0.1332,0.1427,0.1438,0.15,0.1419,0.1609,0.1615,0.162,0.1685,0.1697,0.1708,0,0,0,0,0,0.0977,0.0984,0.1067,0.1041,0.1053,0.1122,0.1135,0.1149,0.1205,0.1249,0.1266,0.1249,0.133,0.1344,0.1433,0.1495,0.1411,0.1415,0.1613,0.1617,0.1622,0.1691,0,0,0,0,0,0,0.0979,0.1002,0.1072,0.1078,0.105,0.1123,0.1135,0.1148,0.124,0.1255,0.1202,0.1208,0.1328,0.134,0.135,0.1494,0.1405,0.1409,0.1412,0.1616,0.162,0.1623,0,0,0,0,0,0,0.0999,0.1007,0.1075,0.1083,0.1091,0.1122,0.1134,0.117,0.1241,0.1189,0.1196,0.1204,0.1317,0.1336,0.1345,0.1399,0.1401,0.1405,0.1407,0.1409,0.1619,0.1622,0,0,0,0,0,0,0.1003,0.1011,0.1083,0.1088,0.1096,0.1172,0.1157,0.1222,0.1234,0.1185,0.1238,0.1239,0.1312,0.1322,0.1341,0.1391,0.1397,0.1401,0.1404,0.1405,0.1407,0,0,0,0,0,0,0,0.1007,0.0942,0.1032,0.1093,0.1099,0.1135,0.1137,0.1139,0.1234,0.1236,0.1237,0.1239,0.1379,0.1383,0.1387,0.1384,0,0,0.1401,0.1402,0,0,0,0,0,0,0,0,0.094,0.0942,0.1032,0.1033,0.1034,0.1135,0.1137,0.1138,0.1234,0.1236,0.1237,0.1238,0.138,0.1383,0.1387,0,0,0,0,0,0,0,0,0,0,0,0,0,0,0,0.1032,0.1033,0,0.1135,0.1137,0.1138,0.1235,0.1236,0.1237,0.1238,0.1381,0.1384,0.1387,0,0,0,0,0,0,0,0,0,0,0,0,0,0,0,0,0,0,0,0,0,0,0,0,0,0,0,0,0,0,0,0,0,0,0,0,0,0,0,0,0,0,0,0,0,0,0,0,0,0,0,0,0,0,0,0,0,0,0,0,0,0,0,0,0,0,0,0,0]}],[{"header":{"parameterUnit":"kt","parameterCategory":2,"dx":1,"dy":1,"la1":30.253999710083008,"la2":30.299108505249023,"lo1":-89.0895004272461,"lo2":-89.04439544677734,"nx":28,"ny":28,"refTime":"2022-10-29T21:00:00:Z","depth":"4","parameterNumber":3,"parameterNumberName":"V-component_of_CURRENTS"},"data":[0.0794,0.0822,0.0871,0.0877,0.0909,0.0981,0.1042,0.1061,0.0996,0.0969,0.0758,0.0676,0.0281,0.044,-0.0113,-0.0187,-0.0168,-0.067,-0.0674,-0.0607,-0.0593,-0.0582,-0.0382,0,0,0,0,0,0.0874,0.0882,0.092,0.0982,0.1056,0.1103,0.1164,0.1202,0.1198,0.1054,0.1024,0.0725,0.0323,0.0144,-0.01,-0.0198,-0.0425,-0.0488,-0.0421,-0.0598,-0.0584,-0.0395,0,0,0,0,0,0,0.0973,0.0989,0.1049,0.1098,0.1161,0.1197,0.124,0.1193,0.1173,0.1046,0.0966,0.0654,0.049,0.0119,-0.0147,-0.0383,-0.0375,-0.0372,-0.037,-0.0359,-0.018,-0.0084,-0.0376,0,0,0,0,0,0.1048,0.1107,0.1146,0.1208,0.1251,0.1295,0.1312,0.1295,0.1265,0.1218,0.1003,0.0769,0.0421,0.0138,-0.0169,-0.0376,-0.0406,-0.054,-0.053,-0.0327,-0.0274,-0.0303,-0.0273,-0.0529,-0.0527,-0.0526,-0.0525,0,0.1122,0.115,0.1258,0.1281,0.1313,0.1354,0.1365,0.1379,0.1342,0.1181,0.1102,0.0819,0.0669,0.0173,-0.002,-0.0363,-0.0365,-0.0503,-0.0285,-0.0247,-0.0287,-0.0258,-0.0232,-0.0514,-0.0515,-0.0516,-0.0517,0,0.1148,0.1208,0.1259,0.1328,0.1351,0.1373,0.1395,0.1376,0.1325,0.1221,0.1176,0.0984,0.0701,0.048,0.0164,0.0073,-0.0172,-0.0269,-0.0065,-0.0113,-0.0224,-0.0201,-0.0495,-0.0499,-0.0502,-0.0505,-0.0508,0,0.1186,0.1221,0.1299,0.1317,0.1355,0.1376,0.138,0.1368,0.1307,0.1244,0.1154,0.104,0.0853,0.0628,0.0484,0.0193,0.0172,0.0079,0.0008,0.0239,0.0257,0.0164,0.0177,0.0085,0.0087,0.009,0.0092,0,0.1181,0.1247,0.1291,0.1304,0.1337,0.1358,0.1367,0.1332,0.1312,0.1217,0.1146,0.103,0.0912,0.0757,0.0547,0.0608,0.0238,0.0283,0.0105,0.0098,0.0184,0.0192,0.0095,0.0095,0.0096,0.0097,0.0098,0,0.1184,0.1221,0.1275,0.1304,0.131,0.1333,0.132,0.1324,0.1254,0.1219,0.1151,0.1068,0.0963,0.0959,0.0713,0.0797,0.0654,0.0544,0.0528,0.043,0.039,0.0372,0.0321,0.0325,0.0328,0.0331,0.0334,0,0.1143,0.1206,0.1223,0.1265,0.1281,0.1269,0.1278,0.1266,0.1232,0.1178,0.1118,0.1053,0.1058,0.101,0.095,0.0791,0.0705,0.0848,0.0486,0.0475,0.0449,0.0388,0.0715,0.0379,0.0373,0.0369,0.0366,0,0.1104,0.1157,0.1163,0.1178,0.1187,0.1196,0.1214,0.12,0.1186,0.1163,0.1115,0.1086,0.1031,0.0992,0.0942,0.0875,0.0761,0.0812,0.0804,0.069,0.0486,0.0445,0.0413,0.073,0.0727,0.0724,0.0397,0,0.1066,0.1098,0.1121,0.1144,0.1151,0.1168,0.1151,0.1152,0.1134,0.1106,0.1065,0.1007,0.0938,0.0934,0.0906,0.0846,0.0779,0.0764,0.0729,0.0733,0.0586,0.0562,0.0814,0.0812,0.081,0.0809,0,0,0.0998,0.1043,0.1044,0.1071,0.1076,0.1047,0.1068,0.106,0.1035,0.1021,0.101,0.0915,0.0881,0.0838,0.085,0.0827,0.073,0.0823,0.0742,0.0736,0.0729,0.0591,0.057,0.0806,0.0805,0.0804,0.0804,0,0.0977,0.0995,0.1034,0.1035,0.104,0.1023,0.1031,0.1012,0.1003,0.0997,0.0941,0.0908,0.086,0.0817,0.0789,0.0807,0.0704,0.0791,0.0838,0.0732,0.0728,0.0723,0.0588,0.057,0.08,0.08,0.08,0,0.0923,0.0936,0.0957,0.0972,0.0967,0.0976,0.0941,0.0955,0.0961,0.0893,0.0892,0.0846,0.0782,0.0767,0.0756,0.074,0.0666,0.0729,0.0735,0.0723,0.0609,0.0606,0.0602,0.0644,0.0644,0.0644,0,0,0.0901,0.0939,0.0927,0.0963,0.0963,0.0941,0.0944,0.093,0.0908,0.09,0.0864,0.0819,0.0782,0.0768,0.0727,0.072,0.0629,0.0716,0.0723,0.0729,0.0722,0.061,0.0607,0.0645,0.0645,0.0645,0,0,0.0881,0.0893,0.0887,0.0928,0.0922,0.0898,0.0915,0.0897,0.0878,0.0877,0.0821,0.0809,0.0792,0.0752,0.0762,0.0723,0.0684,0.0681,0.0774,0.0782,0.0789,0.0791,0.0714,0,0,0,0,0,0.0853,0.0894,0.0888,0.0893,0.0901,0.0903,0.0901,0.0884,0.087,0.0881,0.0844,0.0813,0.0739,0.0747,0.0737,0.0753,0.0648,0.0648,0.0647,0.0761,0.0771,0.0778,0,0,0,0,0,0,0.0855,0.0862,0.0887,0.0868,0.0869,0.0901,0.0867,0.0862,0.0869,0.0866,0.0821,0.0811,0.0772,0.0748,0.0741,0.0756,0.0717,0.0648,0.0647,0.0647,0.0765,0.0772,0.0778,0,0,0,0,0,0.0857,0.0862,0.0886,0.0866,0.0867,0.0852,0.0866,0.0862,0.0865,0.0816,0.0807,0.0855,0.0773,0.0764,0.0744,0.0761,0.0722,0.0719,0.0648,0.0647,0.0647,0.0768,0,0,0,0,0,0,0.0857,0.0846,0.0885,0.0884,0.0862,0.0849,0.0849,0.0862,0.0813,0.0807,0.0846,0.0844,0.0774,0.0766,0.076,0.0766,0.0726,0.0723,0.0721,0.0647,0.0647,0.0647,0,0,0,0,0,0,0.0843,0.0845,0.0884,0.088,0.0878,0.0847,0.0847,0.0821,0.0812,0.0844,0.0842,0.0845,0.0776,0.0768,0.0763,0.0724,0.0729,0.0726,0.0724,0.0723,0.0647,0.0647,0,0,0,0,0,0,0.0843,0.0845,0.088,0.0878,0.0876,0.0859,0.0821,0.0824,0.0833,0.0845,0.0832,0.0831,0.0778,0.0772,0.0765,0.0729,0.0725,0.0729,0.0727,0.0726,0.0725,0,0,0,0,0,0,0,0.0843,0.0843,0.0897,0.0877,0.0875,0.0874,0.0874,0.0873,0.0833,0.0833,0.0832,0.0831,0.0744,0.0741,0.0738,0.0733,0,0,0.0729,0.0728,0,0,0,0,0,0,0,0,0.0841,0.0842,0.0897,0.0897,0.0897,0.0874,0.0874,0.0873,0.0833,0.0833,0.0832,0.0831,0.0743,0.0741,0.0738,0,0,0,0,0,0,0,0,0,0,0,0,0,0,0,0.0897,0.0897,0,0.0874,0.0874,0.0873,0.0833,0.0833,0.0832,0.0832,0.0742,0.074,0.0739,0,0,0,0,0,0,0,0,0,0,0,0,0,0,0,0,0,0,0,0,0,0,0,0,0,0,0,0,0,0,0,0,0,0,0,0,0,0,0,0,0,0,0,0,0,0,0,0,0,0,0,0,0,0,0,0,0,0,0,0,0,0,0,0,0,0,0,0,0]}]]]